^^
Saratoga-Weather Station Historical Data
Daily Summary for April 30, 2020 Units:  Metric    English   Both
Daily Weekly Monthly Yearly Custom
  High: Low: Average:
Temperature: 23.9 °C 10.2 °C 17.2 °C
Dew Point: 8.3 °C 3.9 °C 6.2 °C
Humidity: 72% 34% 50%
Wind Speed: 19.5km/h 0km/h 3.4km/h
Wind Gust: 22.5km/h - -
Wind- - ESE
Pressure: 1021.3 hPa 1017.6 hPa -
Precipitation: 0.0 mm    
Historical Graphs
 
 
Tabular Data for April 30, 2020
Time Temperature Dew Point Pressure Wind Wind Speed Wind Gust Humidity Rainfall Rate (Hourly) solar
00:02 13.2 °C 6.3 °C 1021.0 hPa Calm     63% 0.0 mm 0 W/m2
00:07 13.1 °C 6.2 °C 1021.0 hPa SW 1.4 km/h 1.6 km/h 63% 0.0 mm 0 W/m2
00:12 13.1 °C 6.4 °C 1021.0 hPa Calm   1.6 km/h 64% 0.0 mm 0 W/m2
00:17 13 °C 6.6 °C 1021.0 hPa Calm   1.6 km/h 65% 0.0 mm 0 W/m2
00:22 12.9 °C 6.5 °C 1020.7 hPa Calm   1.6 km/h 65% 0.0 mm 0 W/m2
00:27 12.9 °C 6.3 °C 1021.0 hPa Calm     64% 0.0 mm 0 W/m2
00:32 12.8 °C 6.4 °C 1020.7 hPa Calm     65% 0.0 mm 0 W/m2
00:37 12.8 °C 6.4 °C 1020.7 hPa Calm     65% 0.0 mm 0 W/m2
00:42 12.7 °C 6.3 °C 1020.7 hPa Calm     65% 0.0 mm 0 W/m2
00:47 12.6 °C 6.2 °C 1020.7 hPa Calm     65% 0.0 mm 0 W/m2
00:52 12.4 °C 6.2 °C 1020.7 hPa Calm     66% 0.0 mm 0 W/m2
00:57 12.3 °C 6.1 °C 1021.0 hPa Calm     66% 0.0 mm 0 W/m2
01:02 12.2 °C 6.3 °C 1021.0 hPa SW 1.4 km/h 1.6 km/h 67% 0.0 mm 0 W/m2
01:07 12.2 °C 6.3 °C 1021.0 hPa Calm   1.6 km/h 67% 0.0 mm 0 W/m2
01:12 12.1 °C 6.2 °C 1021.0 hPa Calm   1.6 km/h 67% 0.0 mm 0 W/m2
01:17 11.9 °C 6 °C 1021.0 hPa Calm   1.6 km/h 67% 0.0 mm 0 W/m2
01:22 11.9 °C 6.2 °C 1021.0 hPa Calm   1.6 km/h 68% 0.0 mm 0 W/m2
01:27 11.9 °C 6.2 °C 1021.0 hPa SW 1.4 km/h 3.2 km/h 68% 0.0 mm 0 W/m2
01:32 11.8 °C 6.1 °C 1021.0 hPa SW 1.4 km/h 1.6 km/h 68% 0.0 mm 0 W/m2
01:37 11.8 °C 6.1 °C 1021.0 hPa Calm   1.6 km/h 68% 0.0 mm 0 W/m2
01:42 11.7 °C 6 °C 1021.0 hPa SW 1.4 km/h 1.6 km/h 68% 0.0 mm 0 W/m2
01:47 11.6 °C 5.9 °C 1021.0 hPa Calm     68% 0.0 mm 0 W/m2
01:52 11.6 °C 5.9 °C 1021.0 hPa SW 1.4 km/h 1.6 km/h 68% 0.0 mm 0 W/m2
01:57 11.6 °C 6.1 °C 1021.0 hPa Calm     69% 0.0 mm 0 W/m2
02:02 11.6 °C 6.1 °C 1021.0 hPa Calm   1.6 km/h 69% 0.0 mm 0 W/m2
02:07 11.5 °C 6 °C 1021.0 hPa SW 1.4 km/h 1.6 km/h 69% 0.0 mm 0 W/m2
02:12 11.4 °C 5.9 °C 1021.0 hPa Calm   1.6 km/h 69% 0.0 mm 0 W/m2
02:17 11.3 °C 6 °C 1021.0 hPa Calm   3.2 km/h 70% 0.0 mm 0 W/m2
02:22 11.2 °C 5.7 °C 1021.0 hPa Calm     69% 0.0 mm 0 W/m2
02:27 11.2 °C 5.9 °C 1021.0 hPa Calm   1.6 km/h 70% 0.0 mm 0 W/m2
02:32 11.1 °C 5.6 °C 1021.0 hPa Calm     69% 0.0 mm 0 W/m2
02:37 11.1 °C 5.8 °C 1021.0 hPa Calm   1.6 km/h 70% 0.0 mm 0 W/m2
02:42 10.9 °C 5.6 °C 1021.0 hPa SW 1.4 km/h 1.6 km/h 70% 0.0 mm 0 W/m2
02:47 10.9 °C 5.6 °C 1021.0 hPa SW 1.4 km/h 1.6 km/h 70% 0.0 mm 0 W/m2
02:52 10.8 °C 5.5 °C 1021.0 hPa SW 3.2 km/h 3.2 km/h 70% 0.0 mm 0 W/m2
02:57 10.8 °C 5.8 °C 1021.0 hPa SW 1.4 km/h 1.6 km/h 71% 0.0 mm 0 W/m2
03:02 10.9 °C 5.6 °C 1021.0 hPa SW 1.4 km/h 1.6 km/h 70% 0.0 mm 0 W/m2
03:07 10.9 °C 5.6 °C 1021.0 hPa Calm   1.6 km/h 70% 0.0 mm 0 W/m2
03:13 10.9 °C 5.6 °C 1021.0 hPa Calm   1.6 km/h 70% 0.0 mm 0 W/m2
03:18 10.9 °C 5.6 °C 1021.0 hPa Calm   3.2 km/h 70% 0.0 mm 0 W/m2
03:23 10.9 °C 5.4 °C 1021.0 hPa Calm   1.6 km/h 69% 0.0 mm 0 W/m2
03:28 10.9 °C 5.4 °C 1021.0 hPa Calm     69% 0.0 mm 0 W/m2
03:33 10.9 °C 5.4 °C 1021.0 hPa Calm   1.6 km/h 69% 0.0 mm 0 W/m2
03:38 10.9 °C 5.4 °C 1021.0 hPa Calm     69% 0.0 mm 0 W/m2
03:43 11.2 °C 5.7 °C 1021.0 hPa SW 1.4 km/h 1.6 km/h 69% 0.0 mm 0 W/m2
03:48 11.3 °C 5.6 °C 1021.0 hPa Calm   1.6 km/h 68% 0.0 mm 0 W/m2
03:53 11.3 °C 5.6 °C 1021.0 hPa Calm   1.6 km/h 68% 0.0 mm 0 W/m2
03:58 11.3 °C 5.6 °C 1021.0 hPa Calm   1.6 km/h 68% 0.0 mm 0 W/m2
04:03 11.2 °C 5.5 °C 1021.0 hPa SSW 3.2 km/h 3.2 km/h 68% 0.0 mm 0 W/m2
04:08 11.2 °C 5.5 °C 1021.0 hPa Calm     68% 0.0 mm 0 W/m2
04:13 11.2 °C 5.5 °C 1021.0 hPa SSW 1.4 km/h 1.6 km/h 68% 0.0 mm 0 W/m2
04:18 11.1 °C 5.4 °C 1021.0 hPa SSW 1.4 km/h 1.6 km/h 68% 0.0 mm 0 W/m2
04:23 11 °C 5.5 °C 1020.7 hPa SSW 1.4 km/h 1.6 km/h 69% 0.0 mm 0 W/m2
04:28 10.9 °C 5.4 °C 1021.0 hPa Calm     69% 0.0 mm 0 W/m2
04:33 10.8 °C 5.5 °C 1020.7 hPa SSW 1.4 km/h 1.6 km/h 70% 0.0 mm 0 W/m2
04:39 10.7 °C 5.5 °C 1020.7 hPa Calm   1.6 km/h 70% 0.0 mm 0 W/m2
04:44 10.7 °C 5.5 °C 1020.7 hPa SSW 1.4 km/h 3.2 km/h 70% 0.0 mm 0 W/m2
04:49 10.6 °C 5.4 °C 1020.7 hPa Calm     70% 0.0 mm 0 W/m2
04:54 10.6 °C 5.6 °C 1020.7 hPa SSW 1.4 km/h 1.6 km/h 71% 0.0 mm 0 W/m2
04:59 10.4 °C 5.4 °C 1020.7 hPa Calm   1.6 km/h 71% 0.0 mm 0 W/m2
05:04 10.4 °C 5.4 °C 1020.7 hPa Calm   1.6 km/h 71% 0.0 mm 0 W/m2
05:09 10.3 °C 5.5 °C 1020.7 hPa Calm     72% 0.0 mm 0 W/m2
05:14 10.3 °C 5.5 °C 1020.7 hPa SSW 1.4 km/h 3.2 km/h 72% 0.0 mm 0 W/m2
05:19 10.2 °C 5.4 °C 1020.7 hPa Calm   1.6 km/h 72% 0.0 mm 0 W/m2
05:24 10.3 °C 5.5 °C 1020.7 hPa Calm   1.6 km/h 72% 0.0 mm 0 W/m2
05:29 10.2 °C 5.4 °C 1020.7 hPa SSW 1.4 km/h 3.2 km/h 72% 0.0 mm 0 W/m2
05:34 10.2 °C 5.4 °C 1020.7 hPa Calm   3.2 km/h 72% 0.0 mm 0 W/m2
05:39 10.2 °C 5.4 °C 1020.7 hPa SSW 3.2 km/h 3.2 km/h 72% 0.0 mm 5 W/m2
05:44 10.2 °C 5.4 °C 1020.7 hPa Calm   3.2 km/h 72% 0.0 mm 7 W/m2
05:49 10.2 °C 5.4 °C 1020.7 hPa SSW 1.4 km/h 1.6 km/h 72% 0.0 mm 9 W/m2
05:54 10.3 °C 5.5 °C 1021.0 hPa Calm   3.2 km/h 72% 0.0 mm 11 W/m2
05:59 10.4 °C 5.6 °C 1021.0 hPa Calm   1.6 km/h 72% 0.0 mm 12 W/m2
06:04 10.6 °C 5.6 °C 1021.0 hPa Calm     71% 0.0 mm 14 W/m2
06:09 10.7 °C 5.2 °C 1021.0 hPa Calm   1.6 km/h 69% 0.0 mm 16 W/m2
06:14 10.9 °C 5.6 °C 1021.0 hPa Calm   1.6 km/h 70% 0.0 mm 19 W/m2
06:19 10.9 °C 5.6 °C 1021.0 hPa Calm     70% 0.0 mm 21 W/m2
06:24 10.9 °C 5.6 °C 1021.0 hPa Calm     70% 0.0 mm 23 W/m2
06:29 11 °C 5.5 °C 1021.0 hPa SSW 1.4 km/h 3.2 km/h 69% 0.0 mm 25 W/m2
06:34 11.3 °C 5.4 °C 1021.0 hPa Calm   4.8 km/h 67% 0.0 mm 26 W/m2
06:39 11.6 °C 5.5 °C 1021.0 hPa WNW 1.4 km/h 1.6 km/h 66% 0.0 mm 28 W/m2
06:44 11.8 °C 5.4 °C 1021.0 hPa WNW 3.2 km/h 4.8 km/h 65% 0.0 mm 28 W/m2
06:49 11.9 °C 5.5 °C 1021.0 hPa Calm   1.6 km/h 65% 0.0 mm 30 W/m2
06:54 12 °C 5.4 °C 1021.0 hPa Calm   4.8 km/h 64% 0.0 mm 32 W/m2
06:59 12.1 °C 5.5 °C 1021.0 hPa SSW 1.4 km/h 3.2 km/h 64% 0.0 mm 32 W/m2
07:04 12.2 °C 5.4 °C 1021.0 hPa Calm   3.2 km/h 63% 0.0 mm 33 W/m2
07:09 12.3 °C 5.5 °C 1021.0 hPa ENE 8 km/h 8 km/h 63% 0.0 mm 35 W/m2
07:14 12.3 °C 5.5 °C 1021.0 hPa NW 1.4 km/h 4.8 km/h 63% 0.0 mm 35 W/m2
07:19 12.4 °C 5.3 °C 1021.0 hPa NE 1.4 km/h 4.8 km/h 62% 0.0 mm 37 W/m2
07:24 12.6 °C 5.7 °C 1021.0 hPa WNW 3.2 km/h 3.2 km/h 63% 0.0 mm 39 W/m2
07:29 12.7 °C 5.8 °C 1021.0 hPa WNW 3.2 km/h 3.2 km/h 63% 0.0 mm 39 W/m2
07:34 12.8 °C 5.7 °C 1021.0 hPa Calm   1.6 km/h 62% 0.0 mm 40 W/m2
07:39 12.8 °C 5.7 °C 1021.0 hPa NE 1.4 km/h 1.6 km/h 62% 0.0 mm 116 W/m2
07:45 13 °C 5.7 °C 1021.0 hPa North 1.4 km/h 6.4 km/h 61% 0.0 mm 218 W/m2
07:50 13.3 °C 5.9 °C 1021.0 hPa Calm   3.2 km/h 61% 0.0 mm 243 W/m2
07:55 13.6 °C 6.2 °C 1021.0 hPa NE 1.4 km/h 3.2 km/h 61% 0.0 mm 260 W/m2
08:00 14 °C 5.9 °C 1021.0 hPa Calm   4.8 km/h 58% 0.0 mm 274 W/m2
08:05 14.3 °C 6.6 °C 1021.0 hPa ENE 3.2 km/h 3.2 km/h 60% 0.0 mm 287 W/m2
08:10 14.6 °C 6.2 °C 1021.0 hPa Calm   1.6 km/h 57% 0.0 mm 302 W/m2
08:15 14.7 °C 6.3 °C 1021.0 hPa NW 3.2 km/h 6.4 km/h 57% 0.0 mm 315 W/m2
08:20 14.8 °C 6.4 °C 1021.0 hPa North 4.7 km/h 8 km/h 57% 0.0 mm 327 W/m2
08:25 14.8 °C 6.4 °C 1021.0 hPa WNW 1.4 km/h 6.4 km/h 57% 0.0 mm 341 W/m2
08:30 14.9 °C 6.5 °C 1021.3 hPa Calm   9.7 km/h 57% 0.0 mm 357 W/m2
08:35 15.3 °C 6.6 °C 1021.3 hPa East 3.2 km/h 4.8 km/h 56% 0.0 mm 371 W/m2
08:40 15.7 °C 6.9 °C 1021.3 hPa NE 1.4 km/h 8 km/h 56% 0.0 mm 385 W/m2
08:45 15.7 °C 6.4 °C 1021.3 hPa ESE 3.2 km/h 9.7 km/h 54% 0.0 mm 399 W/m2
08:50 15.8 °C 6.8 °C 1021.3 hPa East 1.4 km/h 6.4 km/h 55% 0.0 mm 410 W/m2
08:55 16.1 °C 6.8 °C 1021.3 hPa NE 1.4 km/h 9.7 km/h 54% 0.0 mm 424 W/m2
09:00 16.3 °C 7 °C 1021.3 hPa NE 4.7 km/h 6.4 km/h 54% 0.0 mm 439 W/m2
09:05 16.4 °C 7.1 °C 1021.3 hPa NE 7.9 km/h 9.7 km/h 54% 0.0 mm 448 W/m2
09:10 16.4 °C 6.8 °C 1021.3 hPa NNW 4.7 km/h 6.4 km/h 53% 0.0 mm 462 W/m2
09:15 16.6 °C 7 °C 1021.3 hPa Calm   4.8 km/h 53% 0.0 mm 476 W/m2
09:20 16.8 °C 6.9 °C 1021.3 hPa NE 9.7 km/h 9.7 km/h 52% 0.0 mm 490 W/m2
09:25 16.9 °C 7 °C 1021.3 hPa ENE 1.4 km/h 11.3 km/h 52% 0.0 mm 503 W/m2
09:30 17.1 °C 7.4 °C 1021.0 hPa NE 1.4 km/h 4.8 km/h 53% 0.0 mm 517 W/m2
09:35 17.3 °C 7.3 °C 1021.0 hPa North 1.4 km/h 11.3 km/h 52% 0.0 mm 529 W/m2
09:40 17.5 °C 7.5 °C 1021.3 hPa Calm   16.1 km/h 52% 0.0 mm 541 W/m2
09:45 17.7 °C 7.7 °C 1021.0 hPa SE 3.2 km/h 8 km/h 52% 0.0 mm 552 W/m2
09:51 17.9 °C 7.6 °C 1021.0 hPa NNW 3.2 km/h 16.1 km/h 51% 0.0 mm 564 W/m2
09:56 18.2 °C 7.9 °C 1021.0 hPa NNE 1.4 km/h 8 km/h 51% 0.0 mm 580 W/m2
10:01 18.3 °C 7.7 °C 1021.0 hPa ENE 6.4 km/h 6.4 km/h 50% 0.0 mm 60 W/m2
10:06 18.6 °C 7.7 °C 1021.0 hPa ESE 4.7 km/h 4.8 km/h 49% 0.0 mm 102 W/m2
10:11 18.6 °C 7.7 °C 1020.7 hPa ESE 1.4 km/h 12.9 km/h 49% 0.0 mm 613 W/m2
10:16 18.8 °C 8.2 °C 1020.7 hPa NE 7.9 km/h 12.9 km/h 50% 0.0 mm 628 W/m2
10:21 19 °C 8.3 °C 1020.7 hPa ENE 17.7 km/h 17.7 km/h 50% 0.0 mm 635 W/m2
10:26 19.2 °C 8.2 °C 1020.7 hPa ESE 1.4 km/h 12.9 km/h 49% 0.0 mm 649 W/m2
10:31 19.3 °C 7.7 °C 1020.7 hPa SE 4.7 km/h 11.3 km/h 47% 0.0 mm 659 W/m2
10:36 19.5 °C 8.2 °C 1020.7 hPa ESE 1.4 km/h 4.8 km/h 48% 0.0 mm 671 W/m2
10:41 19.8 °C 7.8 °C 1020.7 hPa ENE 6.4 km/h 9.7 km/h 46% 0.0 mm 684 W/m2
10:46 19.8 °C 8.2 °C 1020.7 hPa East 4.7 km/h 9.7 km/h 47% 0.0 mm 694 W/m2
10:51 19.9 °C 7.9 °C 1020.7 hPa SE 3.2 km/h 14.5 km/h 46% 0.0 mm 705 W/m2
10:56 20 °C 8 °C 1020.7 hPa ENE 7.9 km/h 12.9 km/h 46% 0.0 mm 717 W/m2
11:01 20.1 °C 7.8 °C 1020.7 hPa SE 13 km/h 16.1 km/h 45% 0.0 mm 726 W/m2
11:06 20 °C 7.7 °C 1020.7 hPa ENE 13 km/h 12.9 km/h 45% 0.0 mm 731 W/m2
11:11 20.2 °C 7.6 °C 1020.7 hPa ESE 9.7 km/h 19.3 km/h 44% 0.0 mm 742 W/m2
11:16 20.3 °C 7.3 °C 1020.7 hPa ESE 6.4 km/h 12.9 km/h 43% 0.0 mm 754 W/m2
11:21 20.4 °C 7.1 °C 1020.7 hPa NE 19.5 km/h 19.3 km/h 42% 0.0 mm 761 W/m2
11:26 20.4 °C 6.7 °C 1020.7 hPa NE 6.4 km/h 11.3 km/h 41% 0.0 mm 770 W/m2
11:31 20.4 °C 6.3 °C 1020.7 hPa East 6.4 km/h 11.3 km/h 40% 0.0 mm 782 W/m2
11:36 20.7 °C 6.2 °C 1020.7 hPa NE 9.7 km/h 12.9 km/h 39% 0.0 mm 786 W/m2
11:41 20.8 °C 6 °C 1020.7 hPa East 4.7 km/h 19.3 km/h 38% 0.0 mm 795 W/m2
11:46 20.8 °C 6 °C 1020.7 hPa ESE 9.7 km/h 16.1 km/h 38% 0.0 mm 803 W/m2
11:51 20.9 °C 6 °C 1020.7 hPa East 7.9 km/h 19.3 km/h 38% 0.0 mm 810 W/m2
11:56 21.2 °C 6.3 °C 1020.7 hPa SE 4.7 km/h 16.1 km/h 38% 0.0 mm 817 W/m2
12:01 21.3 °C 6.4 °C 1020.7 hPa ENE 7.9 km/h 17.7 km/h 38% 0.0 mm 826 W/m2
12:06 21.3 °C 6 °C 1020.7 hPa ENE 11.1 km/h 17.7 km/h 37% 0.0 mm 833 W/m2
12:11 21.3 °C 7.2 °C 1020.7 hPa NE 1.4 km/h 8 km/h 40% 0.0 mm 837 W/m2
12:16 21.4 °C 6.1 °C 1020.7 hPa SW 3.2 km/h 17.7 km/h 37% 0.0 mm 844 W/m2
12:21 21.1 °C 5.4 °C 1020.3 hPa ENE 7.9 km/h 11.3 km/h 36% 0.0 mm 875 W/m2
12:26 21.1 °C 5.8 °C 1020.7 hPa NW 3.2 km/h 16.1 km/h 37% 0.0 mm 858 W/m2
12:31 21.3 °C 5.6 °C 1020.3 hPa ENE 3.2 km/h 11.3 km/h 36% 0.0 mm 856 W/m2
12:36 21.4 °C 5.3 °C 1020.3 hPa NNE 7.9 km/h 16.1 km/h 35% 0.0 mm 863 W/m2
12:41 21.6 °C 5.9 °C 1020.3 hPa NE 4.7 km/h 8 km/h 36% 0.0 mm 861 W/m2
12:46 21.9 °C 6.2 °C 1020.0 hPa East 6.4 km/h 16.1 km/h 36% 0.0 mm 870 W/m2
12:51 21.8 °C 6.1 °C 1020.0 hPa ESE 4.7 km/h 9.7 km/h 36% 0.0 mm 872 W/m2
12:56 21.7 °C 6.4 °C 1020.0 hPa East 3.2 km/h 9.7 km/h 37% 0.0 mm 870 W/m2
13:01 21.8 °C 5.7 °C 1020.0 hPa ENE 7.9 km/h 22.5 km/h 35% 0.0 mm 882 W/m2
13:06 21.9 °C 6.2 °C 1020.0 hPa ENE 6.4 km/h 14.5 km/h 36% 0.0 mm 874 W/m2
13:11 21.8 °C 6.1 °C 1020.0 hPa SE 7.9 km/h 19.3 km/h 36% 0.0 mm 875 W/m2
13:16 21.7 °C 6.8 °C 1020.0 hPa NE 6.4 km/h 8 km/h 38% 0.0 mm 896 W/m2
13:21 21.5 °C 6.2 °C 1019.6 hPa NNE 3.2 km/h 16.1 km/h 37% 0.0 mm 916 W/m2
13:26 21.2 °C 5.9 °C 1020.0 hPa ENE 3.2 km/h 14.5 km/h 37% 0.0 mm 165 W/m2
13:31 21.4 °C 6.5 °C 1019.6 hPa ENE 4.7 km/h 14.5 km/h 38% 0.0 mm 893 W/m2
13:36 21.7 °C 6.4 °C 1020.0 hPa ENE 4.7 km/h 11.3 km/h 37% 0.0 mm 933 W/m2
13:41 21.4 °C 6.5 °C 1019.6 hPa East 4.7 km/h 12.9 km/h 38% 0.0 mm 905 W/m2
13:46 21.7 °C 6.8 °C 1019.6 hPa NE 7.9 km/h 16.1 km/h 38% 0.0 mm 912 W/m2
13:51 22.1 °C 6.7 °C 1019.6 hPa ESE 11.1 km/h 11.3 km/h 37% 0.0 mm 946 W/m2
13:56 22.3 °C 6.9 °C 1019.6 hPa ESE 4.7 km/h 6.4 km/h 37% 0.0 mm 963 W/m2
14:01 22.6 °C 7.2 °C 1019.6 hPa East 6.4 km/h 8 km/h 37% 0.0 mm 928 W/m2
14:06 22.7 °C 7.3 °C 1019.6 hPa ENE 6.4 km/h 19.3 km/h 37% 0.0 mm 953 W/m2
14:11 22.4 °C 6.6 °C 1019.6 hPa ENE 1.4 km/h 11.3 km/h 36% 0.0 mm 947 W/m2
14:16 22.5 °C 6.7 °C 1019.6 hPa NE 7.9 km/h 19.3 km/h 36% 0.0 mm 853 W/m2
14:21 22.4 °C 7 °C 1019.3 hPa ENE 13 km/h 20.9 km/h 37% 0.0 mm 914 W/m2
14:26 22.3 °C 6.9 °C 1019.3 hPa North 3.2 km/h 16.1 km/h 37% 0.0 mm 949 W/m2
14:31 22.3 °C 6.9 °C 1019.3 hPa NNE 6.4 km/h 17.7 km/h 37% 0.0 mm 995 W/m2
14:36 22.2 °C 7.2 °C 1019.3 hPa NW 1.4 km/h 14.5 km/h 38% 0.0 mm 165 W/m2
14:41 22.1 °C 6.7 °C 1019.3 hPa ENE 4.7 km/h 6.4 km/h 37% 0.0 mm 190 W/m2
14:46 21.8 °C 6.8 °C 1019.3 hPa SW 3.2 km/h 14.5 km/h 38% 0.0 mm 951 W/m2
14:51 21.6 °C 7.1 °C 1019.3 hPa ENE 1.4 km/h 12.9 km/h 39% 0.0 mm 649 W/m2
14:56 21.9 °C 6.9 °C 1019.0 hPa NNE 3.2 km/h 6.4 km/h 38% 0.0 mm 888 W/m2
15:01 22.5 °C 7.5 °C 1019.0 hPa NNE 4.7 km/h 6.4 km/h 38% 0.0 mm 860 W/m2
15:06 22.8 °C 7.3 °C 1019.3 hPa NE 6.4 km/h 6.4 km/h 37% 0.0 mm 884 W/m2
15:11 23.1 °C 7.6 °C 1019.0 hPa North 3.2 km/h 6.4 km/h 37% 0.0 mm 958 W/m2
15:16 22.9 °C 6.6 °C 1019.0 hPa ENE 7.9 km/h 12.9 km/h 35% 0.0 mm 858 W/m2
15:21 22.8 °C 7.3 °C 1019.0 hPa NE 7.9 km/h 16.1 km/h 37% 0.0 mm 867 W/m2
15:26 22.8 °C 6.5 °C 1019.0 hPa ENE 4.7 km/h 19.3 km/h 35% 0.0 mm 153 W/m2
15:31 22.7 °C 7.3 °C 1019.0 hPa ESE 14.3 km/h 14.5 km/h 37% 0.0 mm 896 W/m2
15:36 22.8 °C 7.3 °C 1019.0 hPa East 4.7 km/h 19.3 km/h 37% 0.0 mm 912 W/m2
15:41 23 °C 7.1 °C 1019.0 hPa South 1.4 km/h 11.3 km/h 36% 0.0 mm 954 W/m2
15:47 22.9 °C 6.6 °C 1018.6 hPa NE 17.7 km/h 17.7 km/h 35% 0.0 mm 213 W/m2
15:52 22.6 °C 6.8 °C 1019.0 hPa East 9.7 km/h 17.7 km/h 36% 0.0 mm 181 W/m2
15:57 22.6 °C 6.8 °C 1018.6 hPa ESE 6.4 km/h 11.3 km/h 36% 0.0 mm 888 W/m2
16:02 22.7 °C 6.4 °C 1018.6 hPa North 4.7 km/h 8 km/h 35% 0.0 mm 923 W/m2
16:07 22.8 °C 6.5 °C 1018.6 hPa East 4.7 km/h 8 km/h 35% 0.0 mm 761 W/m2
16:12 22.9 °C 6.6 °C 1018.6 hPa West 6.4 km/h 19.3 km/h 35% 0.0 mm 204 W/m2
16:17 22.8 °C 6.9 °C 1018.6 hPa North 1.4 km/h 9.7 km/h 36% 0.0 mm 230 W/m2
16:22 22.9 °C 7.4 °C 1018.6 hPa NE 3.2 km/h 17.7 km/h 37% 0.0 mm 214 W/m2
16:27 22.9 °C 6.6 °C 1018.6 hPa ENE 3.2 km/h 6.4 km/h 35% 0.0 mm 884 W/m2
16:32 23.1 °C 7.2 °C 1018.3 hPa East 11.1 km/h 12.9 km/h 36% 0.0 mm 190 W/m2
16:37 22.8 °C 6.5 °C 1018.3 hPa ESE 9.7 km/h 9.7 km/h 35% 0.0 mm 197 W/m2
16:42 22.6 °C 7.2 °C 1018.3 hPa ESE 6.4 km/h 11.3 km/h 37% 0.0 mm 846 W/m2
16:47 22.6 °C 6.8 °C 1018.3 hPa SSE 3.2 km/h 12.9 km/h 36% 0.0 mm 169 W/m2
16:52 22.8 °C 6.5 °C 1018.3 hPa ENE 4.7 km/h 16.1 km/h 35% 0.0 mm 798 W/m2
16:57 22.9 °C 7 °C 1018.3 hPa NE 6.4 km/h 14.5 km/h 36% 0.0 mm 213 W/m2
17:02 22.6 °C 7.2 °C 1018.3 hPa North 4.7 km/h 16.1 km/h 37% 0.0 mm 113 W/m2
17:07 22.2 °C 6.4 °C 1018.3 hPa East 6.4 km/h 8 km/h 36% 0.0 mm 120 W/m2
17:12 22.4 °C 7.8 °C 1018.3 hPa East 1.4 km/h 12.9 km/h 39% 0.0 mm 680 W/m2
17:17 22.9 °C 7 °C 1018.3 hPa NNE 1.4 km/h 6.4 km/h 36% 0.0 mm 643 W/m2
17:22 23.2 °C 7.3 °C 1018.3 hPa NE 6.4 km/h 16.1 km/h 36% 0.0 mm 656 W/m2
17:27 23.4 °C 6.6 °C 1018.0 hPa NNE 1.4 km/h 4.8 km/h 34% 0.0 mm 691 W/m2
17:32 23.9 °C 7.1 °C 1018.0 hPa SE 7.9 km/h 16.1 km/h 34% 0.0 mm 663 W/m2
17:37 23.6 °C 6.8 °C 1018.0 hPa ENE 6.4 km/h 14.5 km/h 34% 0.0 mm 128 W/m2
17:42 23.1 °C 6.8 °C 1018.0 hPa ENE 9.7 km/h 12.9 km/h 35% 0.0 mm 596 W/m2
17:47 22.9 °C 6.6 °C 1018.0 hPa ENE 4.7 km/h 8 km/h 35% 0.0 mm 571 W/m2
17:52 23.3 °C 7 °C 1018.0 hPa SSE 3.2 km/h 4.8 km/h 35% 0.0 mm 610 W/m2
17:57 23.6 °C 6.8 °C 1018.0 hPa East 7.9 km/h 14.5 km/h 34% 0.0 mm 123 W/m2
18:02 22.9 °C 6.2 °C 1018.0 hPa ESE 11.1 km/h 17.7 km/h 34% 0.0 mm 98 W/m2
18:07 22.3 °C 5.7 °C 1018.0 hPa NE 3.2 km/h 9.7 km/h 34% 0.0 mm 81 W/m2
18:12 21.9 °C 5.7 °C 1018.0 hPa NNW 1.4 km/h 4.8 km/h 35% 0.0 mm 97 W/m2
18:17 22 °C 5.8 °C 1018.0 hPa NW 6.4 km/h 12.9 km/h 35% 0.0 mm 504 W/m2
18:22 22.5 °C 6.3 °C 1018.0 hPa ENE 1.4 km/h 11.3 km/h 35% 0.0 mm 519 W/m2
18:27 23 °C 6.7 °C 1018.0 hPa ENE 4.7 km/h 9.7 km/h 35% 0.0 mm 313 W/m2
18:32 23.1 °C 6.8 °C 1018.0 hPa East 13 km/h 12.9 km/h 35% 0.0 mm 330 W/m2
18:37 22.8 °C 6.1 °C 1018.0 hPa West 1.4 km/h 9.7 km/h 34% 0.0 mm 97 W/m2
18:42 22.6 °C 6.4 °C 1018.0 hPa ENE 4.7 km/h 8 km/h 35% 0.0 mm 274 W/m2
18:47 22.6 °C 6.4 °C 1018.0 hPa SE 11.1 km/h 14.5 km/h 35% 0.0 mm 338 W/m2
18:52 22.4 °C 6.2 °C 1018.0 hPa ENE 1.4 km/h 9.7 km/h 35% 0.0 mm 123 W/m2
18:57 22.2 °C 6.4 °C 1018.0 hPa East 4.7 km/h 14.5 km/h 36% 0.0 mm 109 W/m2
19:02 21.8 °C 6.1 °C 1017.6 hPa ENE 6.4 km/h 6.4 km/h 36% 0.0 mm 77 W/m2
19:07 21.7 °C 6.4 °C 1018.0 hPa Calm   1.6 km/h 37% 0.0 mm 67 W/m2
19:12 21.8 °C 6.5 °C 1018.0 hPa East 13 km/h 12.9 km/h 37% 0.0 mm 302 W/m2
19:18 21.9 °C 6.2 °C 1018.0 hPa SE 9.7 km/h 14.5 km/h 36% 0.0 mm 79 W/m2
19:23 21.7 °C 6 °C 1018.0 hPa ESE 6.4 km/h 9.7 km/h 36% 0.0 mm 70 W/m2
19:28 21.5 °C 5.8 °C 1018.0 hPa ESE 11.1 km/h 14.5 km/h 36% 0.0 mm 83 W/m2
19:33 21.4 °C 6.1 °C 1017.6 hPa NE 3.2 km/h 12.9 km/h 37% 0.0 mm 265 W/m2
19:38 21.5 °C 6.2 °C 1018.0 hPa East 6.4 km/h 12.9 km/h 37% 0.0 mm 220 W/m2
19:43 21.7 °C 6.4 °C 1018.0 hPa South 1.4 km/h 9.7 km/h 37% 0.0 mm 116 W/m2
19:48 21.9 °C 6.5 °C 1017.6 hPa ENE 3.2 km/h 6.4 km/h 37% 0.0 mm 172 W/m2
19:53 21.8 °C 6.5 °C 1018.0 hPa ENE 6.4 km/h 8 km/h 37% 0.0 mm 53 W/m2
19:58 21.5 °C 6.2 °C 1017.6 hPa NE 6.4 km/h 8 km/h 37% 0.0 mm 44 W/m2
20:03 21.2 °C 6.3 °C 1017.6 hPa ESE 4.7 km/h 8 km/h 38% 0.0 mm 98 W/m2
20:08 21.2 °C 6.3 °C 1017.6 hPa ENE 7.9 km/h 14.5 km/h 38% 0.0 mm 83 W/m2
20:13 21.1 °C 6.2 °C 1018.0 hPa East 3.2 km/h 6.4 km/h 38% 0.0 mm 47 W/m2
20:18 20.9 °C 6.4 °C 1018.0 hPa East 1.4 km/h 6.4 km/h 39% 0.0 mm 107 W/m2
20:23 20.9 °C 6.8 °C 1018.0 hPa SSE 3.2 km/h 4.8 km/h 40% 0.0 mm 95 W/m2
20:28 20.9 °C 6.4 °C 1018.0 hPa East 4.7 km/h 9.7 km/h 39% 0.0 mm 84 W/m2
20:33 20.8 °C 6.7 °C 1018.0 hPa Calm   4.8 km/h 40% 0.0 mm 40 W/m2
20:38 20.7 °C 6.6 °C 1018.0 hPa East 1.4 km/h 3.2 km/h 40% 0.0 mm 39 W/m2
20:43 20.6 °C 6.5 °C 1018.0 hPa NE 3.2 km/h 4.8 km/h 40% 0.0 mm 63 W/m2
20:48 20.6 °C 6.9 °C 1018.0 hPa NNE 13 km/h 12.9 km/h 41% 0.0 mm 51 W/m2
20:53 20.4 °C 6.7 °C 1018.0 hPa East 4.7 km/h 4.8 km/h 41% 0.0 mm 44 W/m2
20:58 20.3 °C 6.6 °C 1018.0 hPa ENE 4.7 km/h 12.9 km/h 41% 0.0 mm 32 W/m2
21:03 20.2 °C 5.8 °C 1018.0 hPa East 1.4 km/h 3.2 km/h 39% 0.0 mm 26 W/m2
21:08 19.9 °C 5.2 °C 1018.0 hPa NE 4.7 km/h 11.3 km/h 38% 0.0 mm 23 W/m2
21:13 19.6 °C 5.3 °C 1018.3 hPa East 3.2 km/h 3.2 km/h 39% 0.0 mm 16 W/m2
21:18 19.3 °C 4.6 °C 1018.3 hPa NE 3.2 km/h 8 km/h 38% 0.0 mm 11 W/m2
21:23 19 °C 4.7 °C 1018.3 hPa East 4.7 km/h 9.7 km/h 39% 0.0 mm 7 W/m2
21:28 18.8 °C 4.2 °C 1018.3 hPa Calm   6.4 km/h 38% 0.0 mm 5 W/m2
21:33 18.6 °C 4.7 °C 1018.6 hPa East 1.4 km/h 1.6 km/h 40% 0.0 mm 5 W/m2
21:38 18.3 °C 4.1 °C 1018.6 hPa ESE 3.2 km/h 4.8 km/h 39% 0.0 mm 0 W/m2
21:43 18.1 °C 4.6 °C 1018.6 hPa Calm   3.2 km/h 41% 0.0 mm 0 W/m2
21:48 17.9 °C 4.5 °C 1018.6 hPa South 1.4 km/h 1.6 km/h 41% 0.0 mm 0 W/m2
21:53 17.7 °C 4.3 °C 1018.6 hPa NE 1.4 km/h 3.2 km/h 41% 0.0 mm 0 W/m2
21:58 17.4 °C 4.7 °C 1018.6 hPa ESE 4.7 km/h 6.4 km/h 43% 0.0 mm 0 W/m2
22:03 17.2 °C 4.5 °C 1019.0 hPa Calm     43% 0.0 mm 0 W/m2
22:09 17 °C 4.7 °C 1019.0 hPa SE 1.4 km/h 4.8 km/h 44% 0.0 mm 0 W/m2
22:14 16.8 °C 4.8 °C 1019.0 hPa Calm   1.6 km/h 45% 0.0 mm 0 W/m2
22:19 16.5 °C 4.5 °C 1019.0 hPa ESE 3.2 km/h 3.2 km/h 45% 0.0 mm 0 W/m2
22:24 16.3 °C 4.7 °C 1019.0 hPa Calm   3.2 km/h 46% 0.0 mm 0 W/m2
22:29 16 °C 5 °C 1019.0 hPa SSE 1.4 km/h 1.6 km/h 48% 0.0 mm 0 W/m2
22:34 15.7 °C 5 °C 1019.0 hPa Calm   1.6 km/h 49% 0.0 mm 0 W/m2
22:39 15.5 °C 5.1 °C 1019.0 hPa Calm     50% 0.0 mm 0 W/m2
22:44 15.3 °C 5.2 °C 1019.0 hPa Calm   1.6 km/h 51% 0.0 mm 0 W/m2
22:49 15.1 °C 5 °C 1019.0 hPa Calm   3.2 km/h 51% 0.0 mm 0 W/m2
22:54 14.9 °C 4.9 °C 1019.0 hPa East 1.4 km/h 1.6 km/h 51% 0.0 mm 0 W/m2
22:59 14.9 °C 4 °C 1019.0 hPa East 1.4 km/h 3.2 km/h 48% 0.0 mm 0 W/m2
23:04 15.1 °C 3.9 °C 1019.3 hPa Calm   1.6 km/h 47% 0.0 mm 0 W/m2
23:09 15.2 °C 4.6 °C 1019.3 hPa Calm   1.6 km/h 49% 0.0 mm 0 W/m2
23:14 15.1 °C 4.5 °C 1019.3 hPa Calm   1.6 km/h 49% 0.0 mm 0 W/m2
23:19 14.9 °C 4.6 °C 1019.3 hPa SSE 1.4 km/h 1.6 km/h 50% 0.0 mm 0 W/m2
23:24 14.8 °C 5 °C 1019.3 hPa Calm   4.8 km/h 52% 0.0 mm 0 W/m2
23:29 14.6 °C 4.6 °C 1019.3 hPa Calm   1.6 km/h 51% 0.0 mm 0 W/m2
23:34 14.4 °C 4.9 °C 1019.3 hPa SSE 1.4 km/h 4.8 km/h 53% 0.0 mm 0 W/m2
23:39 14.2 °C 5 °C 1019.3 hPa SSE 4.7 km/h 4.8 km/h 54% 0.0 mm 0 W/m2
23:44 14.1 °C 5.2 °C 1019.3 hPa SSE 1.4 km/h 1.6 km/h 55% 0.0 mm 0 W/m2
23:49 13.8 °C 4.9 °C 1019.3 hPa SSE 1.4 km/h 1.6 km/h 55% 0.0 mm 0 W/m2
23:54 13.7 °C 4.6 °C 1019.3 hPa Calm   1.6 km/h 54% 0.0 mm 0 W/m2
23:59 13.6 °C 4.5 °C 1019.3 hPa SSE 3.2 km/h 3.2 km/h 54% 0.0 mm 0 W/m2
Juneau County Weather
Compliments of Weather Underground - 4 mb